Pine Ridge, SD

1:32 AM MDT on May 30, 2017 (GMT -0600)
Pine Ridge

Weather History for KIEN - June, 2014

Change the Weather History Date:

Monday, June 23, 2014

  Actual Average Record
Temperature  
Mean Temperature 62 °F 68 °F  
Max Temperature 76 °F 83 °F 98 °F (2007)
Min Temperature 47 °F 54 °F 41 °F (2004)
Degree Days  
Heating Degree Days 3 2  
Month to date heating degree days 105 79  
Since 1 June heating degree days 105 79  
Since 1 July heating degree days 7465 7206  
Cooling Degree Days 0 5  
Month to date cooling degree days 33 70  
Year to date cooling degree days 58 87  
Since 1 June cooling degree days 33 70  
Growing Degree Days 12 (Base 50)    
Moisture  
Dew Point 51 °F    
Average Humidity 68    
Maximum Humidity 100    
Minimum Humidity 36    
Precipitation  
Precipitation 0.00 in 0.12 in 0.53 in (2003)
Month to date precipitation 3.86 2.80  
Year to date precipitation 11.46 9.04  
Sea Level Pressure  
Sea Level Pressure 30.03 in    
Wind  
Wind Speed 3 mph (NNE)    
Max Wind Speed 12 mph    
Max Gust Speed 14 mph    
Visibility 10 miles    
Events      
T = Trace of Precipitation, MM = Missing Value Source: NWS Daily Summary

Daily Weather History Graph

Daily Weather History Graph

Search for Another Location

Airport or City:

Trip Planner

Search our weather history database for the weather conditions in past years. The results will help you decide how hot, cold, wet, or windy it might be!

Date:

Astronomy

Jun. 23, 2014 Rise Set
Actual Time 5:11 AM MDT 8:33 PM MDT
Civil Twilight 4:36 AM MDT 9:08 PM MDT
Nautical Twilight 3:49 AM MDT 9:54 PM MDT
Astronomical Twilight 2:52 AM MDT 10:51 PM MDT
Moon 2:43 AM MDT (6/23) 5:12 PM MDT (6/23)
Length of Visible Light 16h 32m
Length of Day
15h 21m
Waning Crescent, 12% of the Moon is Illuminated
Jun 23
Waning Crescent
Jun 27
New
Jul 5
First Quarter
Jul 12
Full
Jul 18
Last Quarter

Hourly Weather History & Observations

Time (MDT) Temp. Dew Point Humidity Pressure Visibility Wind Dir Wind Speed Gust Speed Precip Events Conditions
12:52 AM 55.0 °F 54.0 °F 96% 29.99 in 10.0 mi Calm Calm - N/A   Clear
1:52 AM 53.1 °F 51.1 °F 93% 30.00 in 10.0 mi Calm Calm - N/A   Clear
2:52 AM 51.1 °F 50.0 °F 96% 30.00 in 10.0 mi Calm Calm - N/A   Clear
3:52 AM 51.1 °F 50.0 °F 96% 30.02 in 10.0 mi SW 3.5 mph - N/A   Clear
4:52 AM 50.0 °F 48.9 °F 96% 30.04 in 10.0 mi Calm Calm - N/A   Clear
5:52 AM 48.0 °F 48.0 °F 100% 30.05 in 10.0 mi Calm Calm - N/A   Clear
6:52 AM 55.0 °F 52.0 °F 89% 30.05 in 10.0 mi Calm Calm - N/A   Clear
7:52 AM 60.1 °F 55.0 °F 83% 30.05 in 10.0 mi Calm Calm - N/A   Clear
8:52 AM 64.0 °F 54.0 °F 70% 30.06 in 10.0 mi West 4.6 mph - N/A   Partly Cloudy
9:52 AM 66.9 °F 53.1 °F 61% 30.05 in 10.0 mi NW 4.6 mph - N/A   Mostly Cloudy
10:52 AM 69.1 °F 48.0 °F 47% 30.05 in 10.0 mi South 4.6 mph - N/A   Clear
11:52 AM 71.1 °F 50.0 °F 47% 30.05 in 10.0 mi Calm Calm - N/A   Partly Cloudy
12:52 PM 72.0 °F 51.1 °F 48% 30.04 in 10.0 mi NW 4.6 mph - N/A   Scattered Clouds
2:52 PM 73.9 °F 50.0 °F 43% 30.03 in 10.0 mi Variable 4.6 mph - N/A   Clear
3:52 PM 73.9 °F 52.0 °F 46% 30.03 in 10.0 mi NE 8.1 mph - N/A   Mostly Cloudy
4:52 PM 75.0 °F 50.0 °F 41% 30.01 in 10.0 mi North 6.9 mph - N/A   Clear
5:52 PM 75.0 °F 46.9 °F 37% 30.01 in 10.0 mi Calm Calm - N/A   Clear
6:52 PM 73.0 °F 50.0 °F 44% 30.01 in 10.0 mi ENE 6.9 mph - N/A   Scattered Clouds
7:52 PM 69.1 °F 54.0 °F 58% 30.01 in 10.0 mi ENE 4.6 mph - N/A   Clear
8:52 PM 62.1 °F 55.0 °F 78% 30.03 in 10.0 mi ENE 4.6 mph - N/A   Clear
9:52 PM 57.0 °F 52.0 °F 83% 30.05 in 10.0 mi ENE 5.8 mph - N/A   Clear
10:52 PM 54.0 °F 50.0 °F 86% 30.07 in 10.0 mi East 3.5 mph - N/A   Clear
11:52 PM 54.0 °F 51.1 °F 90% 30.06 in 10.0 mi Calm Calm - N/A   Mostly Cloudy